Tracking 25195 objects as of 20-Jan-2022
HD Live streaming from Space Station
objects crossing your sky now

STARLINK-3119

Track STARLINK-3119 now!
10-day predictions
STARLINK-3119 is classified as:


NORAD ID: 49145
Int'l Code: 2021-082R
Perigee: 364.1 km
Apogee: 369.4 km
Inclination: 70.0 °
Period: 91.7 minutes
Semi major axis: 6737 km
RCS: Unknown
Launch date: September 14, 2021
Source: United States (US)
Launch site: AIR FORCE WESTERN TEST RANGE (AFWTR)
aabbcc
Your satellite tracking list
Your tracking list is empty




NASA's NSSDC Master Catalog

Two Line Element Set (TLE):
1 49145U 21082R   22019.91667824 -.00024249  00000-0 -20189-3 0  9999
2 49145  70.0012 127.6476 0003985 290.3572 231.2926 15.69751359  3684
Source of the keplerian elements: AFSPC